Gastonia, NC

12:56 AM EDT on May 23, 2017 (GMT -0400)
Gastonia Municipal

Weather History for KAKH - January, 2013

Change the Weather History Date:

Tuesday, January 22, 2013

  Actual Average (KCLT) Record (KCLT)
Temperature  
Mean Temperature 36 °F -  
Max Temperature 42 °F 49 °F 74 °F (1937)
Min Temperature 26 °F 30 °F 5 °F (1970)
Degree Days  
Heating Degree Days 29    
Moisture  
Dew Point 5 °F    
Average Humidity 29    
Maximum Humidity 47    
Minimum Humidity 14    
Precipitation  
Precipitation 0.00 in - - ()
Sea Level Pressure  
Sea Level Pressure 30.17 in    
Wind  
Wind Speed 5 mph (North)    
Max Wind Speed 8 mph    
Max Gust Speed 16 mph    
Visibility 10 miles    
Events      
Averages and records for this station are not official NWS values.
T = Trace of Precipitation, MM = Missing Value Source: NWS Daily Summary

Daily Weather History Graph

Daily Weather History Graph

Search for Another Location

Airport or City:

Trip Planner

Search our weather history database for the weather conditions in past years. The results will help you decide how hot, cold, wet, or windy it might be!

Date:

Astronomy

Jan. 22, 2013 Rise Set
Actual Time 7:29 AM EST 5:43 PM EST
Civil Twilight 7:02 AM EST 6:10 PM EST
Nautical Twilight 6:31 AM EST 6:41 PM EST
Astronomical Twilight 6:01 AM EST 7:11 PM EST
Moon 2:06 PM EST (1/22) 3:48 AM EST (1/22)
Length of Visible Light 11h 07m
Length of Day
10h 13m
Waxing Gibbous, 82% of the Moon is Illuminated
Jan 22
Waxing Gibbous
Jan 26
Full
Feb 3
Last Quarter
Feb 10
New
Feb 17
First Quarter

Hourly Weather History & Observations

Time (EST) Temp. Windchill Dew Point Humidity Pressure Visibility Wind Dir Wind Speed Gust Speed Precip Events Conditions
12:54 AM 42.1 °F 39.2 °F 14.0 °F 32% 30.01 in 10.0 mi Variable 4.6 mph - N/A   Clear
1:54 AM 41.0 °F 37.1 °F 12.9 °F 32% 30.02 in 10.0 mi NW 5.8 mph - N/A   Clear
2:54 AM 39.0 °F 34.8 °F 12.0 °F 33% 30.04 in 10.0 mi Variable 5.8 mph - N/A   Clear
3:54 AM 37.0 °F 33.3 °F 12.0 °F 36% 30.05 in 10.0 mi Variable 4.6 mph - N/A   Clear
4:54 AM 33.1 °F 28.7 °F 10.9 °F 40% 30.08 in 10.0 mi North 4.6 mph - N/A   Clear
5:54 AM 32.0 °F 26.4 °F 10.0 °F 40% 30.11 in 10.0 mi NNW 5.8 mph - N/A   Clear
6:54 AM 30.9 °F 24.3 °F 9.0 °F 40% 30.13 in 10.0 mi NNW 6.9 mph - N/A   Clear
7:54 AM 30.0 °F 22.4 °F 8.1 °F 40% 30.16 in 10.0 mi North 8.1 mph - N/A   Clear
8:54 AM 33.1 °F 27.7 °F 7.0 °F 34% 30.19 in 10.0 mi Variable 5.8 mph - N/A   Clear
9:54 AM 36.0 °F 31.1 °F 3.9 °F 26% 30.22 in 10.0 mi Variable 5.8 mph - N/A   Clear
10:54 AM 37.9 °F 32.1 °F 1.0 °F 21% 30.24 in 10.0 mi NW 8.1 mph 16.1 mph N/A   Clear
11:54 AM 39.0 °F 34.0 °F 1.0 °F 20% 30.23 in 10.0 mi North 6.9 mph - N/A   Clear
12:54 PM 39.9 °F 35.8 °F 3.0 °F 21% 30.21 in 10.0 mi Variable 5.8 mph 16.1 mph N/A   Clear
1:54 PM 41.0 °F 36.4 °F 9.0 °F 27% 30.18 in 10.0 mi SW 6.9 mph - N/A   Clear
2:54 PM 41.0 °F 36.4 °F -0.0 °F 18% 30.19 in 10.0 mi Variable 6.9 mph - N/A   Clear
3:54 PM 42.1 °F 38.4 °F -4.0 °F 14% 30.19 in 10.0 mi Variable 5.8 mph - N/A   Clear
4:54 PM 41.0 °F 36.4 °F -2.0 °F 16% 30.19 in 10.0 mi Variable 6.9 mph - N/A   Clear
5:54 PM 37.9 °F - 1.9 °F 22% 30.21 in 10.0 mi Calm Calm - N/A   Clear
6:54 PM 36.0 °F - 1.0 °F 23% 30.22 in 10.0 mi Calm Calm - N/A   Clear
7:54 PM 34.0 °F 31.0 °F 3.0 °F 27% 30.22 in 10.0 mi NNE 3.5 mph - N/A   Clear
8:54 PM 34.0 °F 28.8 °F 1.0 °F 25% 30.24 in 10.0 mi North 5.8 mph - N/A   Clear
9:54 PM 30.0 °F 24.1 °F 3.0 °F 32% 30.25 in 10.0 mi ENE 5.8 mph - N/A   Clear
10:54 PM 30.0 °F 24.1 °F 3.9 °F 33% 30.26 in 10.0 mi ENE 5.8 mph - N/A   Clear
11:54 PM 26.1 °F - 8.1 °F 47% 30.27 in 10.0 mi Calm Calm - N/A   Clear